297  
NZUS99 KIND 250709  
HRRIND  
 
WEATHER ROUNDUP FOR INDIANA AND SURROUNDING STATES  
NATIONAL WEATHER SERVICE INDIANAPOLIS IN  
300 AM EDT MON JUN 25 2018  
   
..INDIANA
 
 
 
CITY SKY/WX TMP DP RH WIND PRES REMARKS  
INDIANAPOLIS FAIR 70 63 78 NE9 30.01S  
EAGLE CREEK FAIR 70 61 73 NE5 30.01S  
ZIONSVILLE FAIR 64 62 95 NE5 30.04S  
FISHERS N/A 64 64 100 NE3 30.04R  
ANDERSON FAIR 67 63 85 E5 30.05R  
MOUNT COMFORT FAIR 64 64 100 NE3 30.04R  
GREENWOOD FAIR 68 63 84 NE5 30.02S  
SHELBYVILLE FAIR 67 62 84 NE6 30.01S  

 
 
CITY SKY/WX TMP DP RH WIND PRES REMARKS  
LAFAYETTE FAIR 64 62 93 NE7 30.03R  
KOKOMO FAIR 64 62 93 E7 30.06R  
FRANKFORT CLOUDY 65 63 91 NE6 30.06R  
CRAWFORDSVILLE FAIR 63 63 100 N6 30.03S  
MUNCIE FAIR 68 63 84 E8 30.05R  
GREENCASTLE FAIR 66 61 82 NE6 30.02S  
TERRE HAUTE FAIR 69 65 86 NE7 29.99S  
BLOOMINGTON CLOUDY 71 70 96 E3 29.99F  
BEDFORD CLOUDY 72 68 88 SE5 29.99R  
SEYMOUR FAIR 73 70 88 CALM 30.00R  
NORTH VERNON FAIR 68 66 94 NE5 30.01R  

 
 
CITY SKY/WX TMP DP RH WIND PRES REMARKS  
GARY LGT RAIN 64 64 100 N5 30.09R VSB 3/4  
VALPARAISO FAIR 64 62 93 NE6 30.07S  
LA PORTE FAIR 63 61 94 NE6 30.08R  
MICHIGAN CITY FOG 61 61 100 CALM 30.08R VSB 1/2  
SOUTH BEND FAIR 64 61 90 CALM 30.09R  
GOSHEN FAIR 65 62 90 E6 30.08R  
ANGOLA FAIR 63 61 94 NE5 30.09R  
KENDALLVILLE FAIR 63 60 89 E3 30.09R  
AUBURN FAIR 63 61 94 E3 30.10R  
RENSSELAER CLOUDY 63 59 88 NE7 30.07R HAZE  
KNOX FAIR 61 61 100 NE5 30.06R  
ROCHESTER FAIR 66 64 94 NE3 30.07R  
WARSAW FAIR 64 63 94 E6 30.08R  
FORT WAYNE FAIR 65 63 93 E7 30.08R  
MONTICELLO FAIR 62 60 95 NE5 30.04R  
LOGANSPORT FAIR 63 61 94 NE3 30.06R  
PERU/GRISSOM FAIR 64 64 100 E7 30.05R  
HUNTINGTON FAIR 64 63 96 E5 30.07R  
MARION FAIR 64 62 93 CALM 30.06R  
RICHMOND FAIR 63 63 100 E8 30.06S  
BATESVILLE N/A 66 66 100 CALM 30.03R  
WASHINGTON CLOUDY N/A N/A N/A S3 29.98R  
FRENCH LICK CLOUDY 70 N/A N/A CALM 30.01R  
MADISON MOCLDY 72 68 88 CALM 30.03S  
HUNTINGBURG LGT RAIN 71 70 96 S7 30.01R  
EVANSVILLE N/A N/A N/A N/A MISG 30.00S  

 
   
..ILLINOIS
 
 
 
CITY SKY/WX TMP DP RH WIND PRES REMARKS  
CHICAGO FAIR 63 56 78 NE9 30.08R  
MOLINE FAIR 67 63 87 E10 30.04R  
ROCKFORD FAIR 62 57 83 NE3 30.10R  
KANKAKEE CLOUDY 63 62 97 CALM 30.07S FOG  
PEORIA FAIR 67 61 81 E15 30.01F  
BLOOMINGTON FAIR 62 61 96 NE9 30.04S  
CHAMPAIGN FAIR 67 63 87 NE12 30.01S  
RANTOUL FAIR 66 64 92 NE9 30.03R  
DANVILLE FAIR 64 63 97 NE6 30.00S  
QUINCY PTCLDY 71 66 84 E9 29.96F  
SPRINGFIELD FAIR 69 66 90 E6 29.98S  
DECATUR FAIR 67 67 100 NE10 29.99R  
MATTOON MOCLDY 70 67 90 NE8 29.98R  
PARIS FAIR 67 66 97 NE6 30.01S  
EFFINGHAM MOCLDY 72 71 97 CALM 29.99R  
ROBINSON CLOUDY 72 71 98 CALM 29.99S  
OLNEY CLOUDY 70 68 93 E3 29.98S  
LAWRENCEVILLE CLOUDY 73 69 87 CALM 29.98R  
MOUNT VERNON CLOUDY 72 70 94 E6 29.96S  
FAIRFIELD MOCLDY 71 71 100 SE3 29.95F  
MOUNT CARMEL MOCLDY 70 69 97 CALM 29.98S  
CARMI CLOUDY 72 70 94 E9 29.95F  

 
   
..KENTUCKY
 
 
 
CITY SKY/WX TMP DP RH WIND PRES REMARKS  
LOUISVILLE LGT RAIN 74 70 87 S9 30.00S  
PADUCAH MOCLDY 73 71 93 E5 29.91F  
OWENSBORO RAIN 71 70 96 E7 29.98F  
FORT KNOX N/A 70 70 100 SE6 30.03S  
LEXINGTON RAIN 73 69 87 S3 30.05R  
BOWLING GREEN RAIN 75 73 93 NE6 30.02F FOG  
JACKSON FAIR 72 68 87 CALM 30.06S  

 
   
..OHIO
 
 
 
CITY SKY/WX TMP DP RH WIND PRES REMARKS  
CINCINNATI MOCLDY 76 60 57 NE9 30.02R  
DAYTON FAIR 65 62 90 NE6 30.06S  
TOLEDO FAIR 63 59 87 E8 30.10R  
DEFIANCE FAIR 64 61 90 MISG 30.09R  
FINDLAY FAIR 65 61 87 E5 30.08R  
LIMA FAIR 63 62 97 E6 30.08R  
WRIGHT-PAT AFB FAIR 67 63 87 CALM 30.05S  
COLUMBUS FAIR 66 59 78 E3 30.06R  
CLEVELAND CLOUDY 66 61 84 N8 30.09S  

 
   
..MICHIGAN
 
 
 
CITY SKY/WX TMP DP RH WIND PRES REMARKS  
DETROIT FAIR 61 55 81 N6 30.12R  
GRAND RAPIDS FAIR 62 59 90 E9 30.12R  
LANSING FAIR 59 56 89 NE10 30.13R  
KALAMAZOO FAIR 62 59 90 NE3 30.11R  
BATTLE CREEK FAIR 62 59 90 E7 30.12R  
MARSHALL FAIR 60 58 95 CALM 30.11R  
JACKSON FAIR 59 58 96 NE5 30.12R  
BENTON HARBOR FAIR 59 58 96 CALM 30.08R FOG  
STURGIS FAIR 64 62 93 E5 30.09R  
COLDWATER FAIR 62 61 95 E5 30.11R  
HILLSDALE FAIR 57 55 94 E3 30.11R  

 
   
..OTHER LOCATIONS
 
 
 
CITY SKY/WX TMP DP RH WIND PRES REMARKS  
SAINT LOUIS MO PTCLDY 71 68 90 E8 29.96S  
CAPE GIRARDEAU TSTM 74 72 93 E12 29.90F FOG  
MILWAUKEE WI FAIR 59 54 83 N14 30.11S  
NASHVILLE TN MOCLDY 76 70 82 S3 30.00R  

 
 
 
 
CLICK HERE TO GO TO PREVIOUS BULLETINS.

The Nexlab IN Page Main Text Page